[[{"header":{"parameterUnit":"m.s-1","parameterCategory":1,"la1":30.2991,"la2":30.254,"lo1":-89.0895,"lo2":-89.0444,"dy":0.0017,"dx":0.0017,"nx":28,"ny":28,"refTime":"2026-02-26T09:00:00:Z","depth":0,"parameterNumber":2,"parameterNumberName":"U-component_of_WINDS"},"data":[0,0,0,0,0,0,0,0,0,0,0,0,0,0,0,0,0,0,0,0,0,0,0,0,0,0,0,0,0,0,0,0,0,0,0,0,0,0,0,0,0,0,0,0,0,0,0,0,0,0,0,0,0,0,0,0,0,0,-1.3433,-1.3434,0,-1.3513,-1.3514,-1.3515,-1.3502,-1.3501,-1.3499,-1.3498,-1.3586,-1.359,-1.3593,0,0,0,0,0,0,0,0,0,0,0,0,0,-1.3275,-1.3278,-1.3433,-1.3434,-1.3435,-1.3513,-1.3514,-1.3515,-1.3502,-1.3501,-1.3499,-1.3497,-1.3585,-1.3589,-1.3594,0,0,0,0,0,0,0,0,0,0,0,0,0,-1.3348,-1.3279,-1.3433,-1.3438,-1.3439,-1.3513,-1.3514,-1.3516,-1.3503,-1.3501,-1.3498,-1.3496,-1.3583,-1.3589,-1.3594,-1.367,0,0,-1.3611,-1.3613,0,0,0,0,0,0,0,0,-1.3344,-1.3354,-1.3436,-1.3438,-1.3439,-1.3495,-1.3491,-1.3568,-1.3503,-1.3479,-1.3498,-1.3495,-1.3558,-1.3565,-1.3585,-1.3674,-1.3678,-1.3611,-1.3615,-1.3617,-1.3619,0,0,0,0,0,0,0,-1.3339,-1.3351,-1.3465,-1.3437,-1.3439,-1.3438,-1.3446,-1.3505,-1.3529,-1.3481,-1.348,-1.3489,-1.3558,-1.358,-1.3587,-1.3679,-1.3611,-1.3616,-1.3619,-1.3622,-1.3836,-1.3838,0,0,0,0,0,0,-1.3332,-1.3346,-1.3463,-1.3468,-1.3385,-1.3443,-1.3452,-1.348,-1.3529,-1.3534,-1.3491,-1.3488,-1.3572,-1.3581,-1.359,-1.3683,-1.3617,-1.3622,-1.3625,-1.3833,-1.3836,-1.3839,0,0,0,0,0,0,-1.3328,-1.3342,-1.3459,-1.3407,-1.3422,-1.3447,-1.3479,-1.3482,-1.3504,-1.3536,-1.3541,-1.3508,-1.357,-1.3583,-1.365,-1.3686,-1.3625,-1.363,-1.383,-1.3834,-1.3838,-1.3869,0,0,0,0,0,0,-1.3324,-1.3341,-1.3369,-1.3407,-1.3424,-1.3516,-1.3481,-1.3485,-1.3513,-1.351,-1.3554,-1.3559,-1.357,-1.3642,-1.3656,-1.3692,-1.3634,-1.3827,-1.3832,-1.3836,-1.3865,-1.3873,-1.388,0,0,0,0,0,-1.3318,-1.3376,-1.337,-1.3384,-1.3459,-1.3518,-1.3528,-1.3537,-1.3515,-1.3545,-1.3566,-1.3558,-1.368,-1.3649,-1.3664,-1.3703,-1.3825,-1.3831,-1.3836,-1.3861,-1.3872,-1.388,0,0,0,0,0,0,-1.3343,-1.3381,-1.3375,-1.3446,-1.3479,-1.3516,-1.3553,-1.3548,-1.3589,-1.3585,-1.3596,-1.3606,-1.3675,-1.3696,-1.3661,-1.378,-1.375,-1.3758,-1.3764,-1.3774,-1.3781,-1.3775,-1.3638,0,0,0,0,0,-1.3356,-1.3398,-1.343,-1.349,-1.3507,-1.3527,-1.3553,-1.3557,-1.3592,-1.3606,-1.3632,-1.3668,-1.3715,-1.3745,-1.379,-1.3867,-1.3878,-1.3902,-1.391,-1.3916,-1.3924,-1.3967,-1.3979,-1.3857,-1.3857,-1.3856,0,0,-1.3385,-1.3411,-1.3437,-1.3496,-1.3521,-1.3567,-1.3539,-1.3588,-1.3623,-1.3615,-1.3679,-1.37,-1.3741,-1.3814,-1.3848,-1.3834,-1.3959,-1.3923,-1.3927,-1.3932,-1.3974,-1.3986,-1.3996,-1.386,-1.386,-1.3859,0,0,-1.346,-1.3484,-1.3536,-1.3562,-1.3601,-1.3614,-1.3626,-1.3664,-1.3677,-1.3741,-1.3736,-1.3779,-1.3858,-1.3888,-1.3913,-1.4,-1.3995,-1.4014,-1.4055,-1.4098,-1.4107,-1.4116,-1.4148,-1.4159,-1.4022,-1.4022,-1.4022,0,-1.3492,-1.3559,-1.3565,-1.3615,-1.3641,-1.3633,-1.3688,-1.3713,-1.3766,-1.3785,-1.3768,-1.3867,-1.3894,-1.3975,-1.3996,-1.4016,-1.4033,-1.401,-1.4105,-1.4114,-1.4122,-1.4153,-1.4165,-1.4024,-1.4024,-1.4023,-1.4023,0,-1.3596,-1.3642,-1.3681,-1.3729,-1.376,-1.3812,-1.3828,-1.3858,-1.386,-1.3875,-1.3942,-1.3974,-1.4025,-1.4045,-1.4047,-1.4126,-1.4116,-1.4102,-1.4072,-1.4136,-1.4165,-1.4177,-1.4027,-1.4026,-1.4026,-1.4025,0,0,-1.369,-1.374,-1.3754,-1.3776,-1.3818,-1.3855,-1.3908,-1.3955,-1.3982,-1.4019,-1.4064,-1.4131,-1.4118,-1.4147,-1.4153,-1.419,-1.4258,-1.4172,-1.4173,-1.4188,-1.4348,-1.4359,-1.4373,-1.4255,-1.4257,-1.4259,-1.4345,0,-1.3771,-1.3861,-1.3868,-1.395,-1.3994,-1.3987,-1.4033,-1.4065,-1.4081,-1.4122,-1.414,-1.4188,-1.4167,-1.4184,-1.422,-1.4242,-1.4291,-1.4236,-1.4299,-1.4301,-1.429,-1.4388,-1.44,-1.448,-1.4357,-1.4358,-1.436,0,-1.3877,-1.3914,-1.4,-1.4035,-1.4054,-1.4095,-1.414,-1.4178,-1.4215,-1.4224,-1.4256,-1.4257,-1.4313,-1.428,-1.4358,-1.4321,-1.4347,-1.4362,-1.4365,-1.4372,-1.4335,-1.4399,-1.4505,-1.4518,-1.4378,-1.4376,-1.4375,0,-1.3938,-1.401,-1.407,-1.4089,-1.4132,-1.4161,-1.4181,-1.4215,-1.4244,-1.4283,-1.4302,-1.4349,-1.4375,-1.4412,-1.4426,-1.44,-1.4504,-1.4472,-1.4515,-1.4515,-1.4538,-1.4537,-1.4652,-1.4553,-1.4553,-1.4553,-1.4553,0,-1.4027,-1.4081,-1.4098,-1.4136,-1.4196,-1.4204,-1.4264,-1.4283,-1.4313,-1.4356,-1.4353,-1.4393,-1.4409,-1.4453,-1.4464,-1.4528,-1.454,-1.455,-1.4553,-1.4551,-1.455,-1.4569,-1.4565,-1.4556,-1.4555,-1.4555,-1.4554,0,-1.4106,-1.412,-1.4186,-1.4221,-1.4231,-1.4274,-1.4304,-1.4342,-1.4356,-1.4411,-1.4424,-1.4448,-1.4499,-1.4516,-1.4579,-1.4587,-1.4662,-1.4659,-1.4649,-1.465,-1.4692,-1.4688,-1.4824,-1.4843,-1.4731,-1.4732,-1.4733,0,-1.4163,-1.4204,-1.4242,-1.4269,-1.4289,-1.4334,-1.4362,-1.4372,-1.4403,-1.4447,-1.448,-1.453,-1.457,-1.4653,-1.4677,-1.4726,-1.4725,-1.4769,-1.4732,-1.4729,-1.4727,-1.4725,-1.473,-1.4777,-1.4778,-1.4779,-1.478,0,-1.4263,-1.4267,-1.4307,-1.435,-1.4384,-1.4419,-1.4452,-1.4475,-1.4491,-1.4525,-1.4576,-1.4608,-1.4671,-1.4721,-1.477,-1.4793,-1.479,-1.4791,-1.4803,-1.4802,-1.4795,-1.4801,-1.4669,-1.4788,-1.4787,-1.4786,-1.4786,-1.4786,-1.4333,-1.4369,-1.4401,-1.4447,-1.4472,-1.4504,-1.454,-1.4559,-1.4601,-1.4652,-1.4656,-1.4712,-1.4748,-1.4813,-1.4838,-1.4883,-1.4871,-1.4889,-1.4894,-1.4899,-1.4902,-1.4787,-1.4892,-1.4892,-1.4892,-1.4892,-1.4891,0,-1.4433,-1.4454,-1.4495,-1.4541,-1.4577,-1.4568,-1.4605,-1.4636,-1.4684,-1.4717,-1.4757,-1.4817,-1.4866,-1.4893,-1.4943,-1.4974,-1.4974,-1.4987,-1.4985,-1.4991,-1.491,-1.4894,-1.4986,-1.4986,-1.4986,-1.4986,-1.4986,-1.4986,-1.449,-1.455,-1.4559,-1.4632,-1.4653,-1.4706,-1.4728,-1.4757,-1.4784,-1.4849,-1.4889,-1.4906,-1.4938,-1.499,-1.5035,-1.5042,-1.5061,-1.5076,-1.5082,-1.5006,-1.4996,-1.4987,-1.4973,-1.5079,-1.5079,-1.5159,-1.516,-1.516]},{"header":{"parameterUnit":"m.s-1","parameterCategory":1,"la1":30.2991,"la2":30.254,"lo1":-89.0895,"lo2":-89.0444,"dy":0.0017,"dx":0.0017,"nx":28,"ny":28,"refTime":"2026-02-26T09:00:00:Z","depth":0,"parameterNumber":3,"parameterNumberName":"V-component_of_WINDS"},"data":[0,0,0,0,0,0,0,0,0,0,0,0,0,0,0,0,0,0,0,0,0,0,0,0,0,0,0,0,0,0,0,0,0,0,0,0,0,0,0,0,0,0,0,0,0,0,0,0,0,0,0,0,0,0,0,0,0,0,-1.3968,-1.3968,0,-1.3914,-1.3914,-1.3913,-1.39,-1.39,-1.39,-1.3901,-1.3843,-1.3841,-1.3839,0,0,0,0,0,0,0,0,0,0,0,0,0,-1.4056,-1.4054,-1.3968,-1.3967,-1.3967,-1.3914,-1.3913,-1.3913,-1.39,-1.39,-1.3901,-1.3901,-1.3844,-1.3841,-1.3839,0,0,0,0,0,0,0,0,0,0,0,0,0,-1.4011,-1.4054,-1.3968,-1.3954,-1.3952,-1.3914,-1.3913,-1.3913,-1.39,-1.39,-1.3901,-1.3901,-1.3844,-1.3842,-1.3839,-1.3811,0,0,-1.383,-1.3829,0,0,0,0,0,0,0,0,-1.4014,-1.4008,-1.3957,-1.3955,-1.3953,-1.3914,-1.3923,-1.3878,-1.3899,-1.3919,-1.3901,-1.3901,-1.3866,-1.3862,-1.385,-1.3808,-1.3805,-1.383,-1.3828,-1.3827,-1.3826,0,0,0,0,0,0,0,-1.4017,-1.401,-1.3947,-1.3956,-1.3954,-1.3949,-1.3943,-1.3915,-1.389,-1.3918,-1.3917,-1.3911,-1.3865,-1.3853,-1.3849,-1.3805,-1.383,-1.3828,-1.3826,-1.3825,-1.3734,-1.3734,0,0,0,0,0,0,-1.4023,-1.4013,-1.3948,-1.3945,-1.3985,-1.3947,-1.3941,-1.3926,-1.3891,-1.3886,-1.391,-1.391,-1.3857,-1.3852,-1.3847,-1.381,-1.3827,-1.3824,-1.3823,-1.3735,-1.3734,-1.3733,0,0,0,0,0,0,-1.4025,-1.4017,-1.3951,-1.3979,-1.397,-1.3945,-1.3929,-1.3925,-1.3913,-1.3885,-1.388,-1.3902,-1.3858,-1.3851,-1.3819,-1.3808,-1.3823,-1.3821,-1.3736,-1.3735,-1.3734,-1.3737,0,0,0,0,0,0,-1.4028,-1.4018,-1.4008,-1.3979,-1.3968,-1.3925,-1.3928,-1.3923,-1.3908,-1.3907,-1.3876,-1.3872,-1.3857,-1.3824,-1.3817,-1.3804,-1.3818,-1.3737,-1.3735,-1.3734,-1.3738,-1.3737,-1.3735,0,0,0,0,0,-1.4031,-1.4011,-1.4008,-1.4,-1.3956,-1.3925,-1.3919,-1.3904,-1.3907,-1.3896,-1.3878,-1.3873,-1.381,-1.3821,-1.3812,-1.3799,-1.3737,-1.3736,-1.3734,-1.3739,-1.3737,-1.3735,0,0,0,0,0,0,-1.404,-1.4007,-1.4003,-1.3974,-1.3952,-1.3923,-1.3909,-1.3902,-1.3879,-1.3879,-1.386,-1.3853,-1.3823,-1.3808,-1.382,-1.3769,-1.3774,-1.377,-1.378,-1.3778,-1.3777,-1.3781,-1.3816,0,0,0,0,0,-1.4039,-1.4017,-1.399,-1.3966,-1.3956,-1.3934,-1.392,-1.391,-1.3887,-1.3877,-1.3857,-1.3834,-1.3808,-1.3792,-1.3768,-1.3736,-1.3728,-1.3722,-1.3721,-1.372,-1.3717,-1.3697,-1.3694,-1.3728,-1.3728,-1.3728,0,0,-1.4035,-1.4015,-1.4003,-1.3968,-1.395,-1.3927,-1.3926,-1.3903,-1.3885,-1.3873,-1.3843,-1.3827,-1.3799,-1.3767,-1.3752,-1.3754,-1.3706,-1.3718,-1.3717,-1.3715,-1.3695,-1.3692,-1.3689,-1.3727,-1.3727,-1.3727,0,0,-1.4018,-1.4001,-1.3979,-1.3961,-1.3934,-1.3919,-1.3914,-1.3885,-1.3874,-1.3843,-1.3834,-1.3812,-1.3769,-1.375,-1.3734,-1.3707,-1.3701,-1.37,-1.3692,-1.3673,-1.367,-1.3668,-1.3657,-1.3653,-1.3697,-1.3697,-1.3697,0,-1.4017,-1.3984,-1.3968,-1.3945,-1.3929,-1.3917,-1.3894,-1.3877,-1.3843,-1.3832,-1.3834,-1.3779,-1.376,-1.3723,-1.3716,-1.3704,-1.3696,-1.3703,-1.3672,-1.3669,-1.3667,-1.3656,-1.3652,-1.3697,-1.3697,-1.3697,-1.3697,0,-1.3983,-1.396,-1.3945,-1.3913,-1.3895,-1.3872,-1.3852,-1.3835,-1.3826,-1.3811,-1.3778,-1.3755,-1.3725,-1.3715,-1.3706,-1.3675,-1.3677,-1.3676,-1.368,-1.3664,-1.3653,-1.3649,-1.3697,-1.3697,-1.3697,-1.3697,0,0,-1.3971,-1.393,-1.3925,-1.3909,-1.3878,-1.3859,-1.3834,-1.3805,-1.3791,-1.3767,-1.3745,-1.3708,-1.3707,-1.3689,-1.3677,-1.3661,-1.3639,-1.3661,-1.366,-1.3657,-1.3602,-1.3603,-1.3599,-1.3635,-1.3634,-1.3633,-1.3604,0,-1.3949,-1.3906,-1.389,-1.3854,-1.3831,-1.3819,-1.3797,-1.3774,-1.3759,-1.3736,-1.3719,-1.3693,-1.3693,-1.3682,-1.3665,-1.3646,-1.3628,-1.3647,-1.3612,-1.3611,-1.3619,-1.3593,-1.3594,-1.3568,-1.36,-1.36,-1.3599,0,-1.3918,-1.3895,-1.3856,-1.3826,-1.3816,-1.3797,-1.3768,-1.3747,-1.372,-1.371,-1.3689,-1.3678,-1.365,-1.3656,-1.3616,-1.363,-1.3614,-1.3602,-1.3601,-1.3597,-1.3604,-1.3588,-1.356,-1.3556,-1.3593,-1.3593,-1.3594,0,-1.3912,-1.387,-1.3841,-1.3829,-1.3793,-1.378,-1.3764,-1.3738,-1.3721,-1.3695,-1.3684,-1.3655,-1.3639,-1.3616,-1.3597,-1.3604,-1.3558,-1.3563,-1.3548,-1.3548,-1.3539,-1.354,-1.3507,-1.353,-1.353,-1.353,-1.353,0,-1.3889,-1.3865,-1.3838,-1.382,-1.3793,-1.3774,-1.3747,-1.3731,-1.3708,-1.3685,-1.3673,-1.3652,-1.3628,-1.3603,-1.3588,-1.3556,-1.355,-1.3539,-1.3536,-1.354,-1.3541,-1.353,-1.3531,-1.3529,-1.3529,-1.3529,-1.3529,0,-1.3877,-1.3858,-1.3826,-1.3795,-1.3786,-1.3767,-1.374,-1.3721,-1.3705,-1.3676,-1.3668,-1.3642,-1.3612,-1.3591,-1.3553,-1.3542,-1.3508,-1.3504,-1.3517,-1.3515,-1.35,-1.3502,-1.3459,-1.3452,-1.348,-1.348,-1.348,0,-1.3864,-1.3845,-1.3812,-1.3797,-1.3781,-1.3756,-1.3739,-1.3719,-1.3701,-1.3669,-1.3653,-1.3623,-1.3597,-1.355,-1.3526,-1.3496,-1.3492,-1.3479,-1.3487,-1.3492,-1.349,-1.3491,-1.3489,-1.3477,-1.3477,-1.3477,-1.3477,0,-1.3841,-1.3832,-1.3808,-1.378,-1.3759,-1.3736,-1.3713,-1.37,-1.3676,-1.3656,-1.3626,-1.3606,-1.3566,-1.3536,-1.3503,-1.3485,-1.3476,-1.3474,-1.3469,-1.3473,-1.3481,-1.3476,-1.3513,-1.3475,-1.3476,-1.3476,-1.3476,-1.3476,-1.3828,-1.381,-1.3784,-1.3757,-1.3737,-1.3715,-1.3695,-1.3676,-1.3651,-1.3618,-1.3607,-1.3575,-1.3547,-1.3502,-1.3484,-1.3458,-1.3458,-1.3451,-1.3449,-1.3447,-1.3447,-1.3486,-1.3452,-1.3452,-1.3452,-1.3452,-1.3452,0,-1.3804,-1.3786,-1.3761,-1.3728,-1.3706,-1.3701,-1.3674,-1.3656,-1.3628,-1.3603,-1.3578,-1.3542,-1.3511,-1.3485,-1.3453,-1.3437,-1.3432,-1.3429,-1.343,-1.3426,-1.3449,-1.3456,-1.3434,-1.3434,-1.3434,-1.3434,-1.3434,-1.3434,-1.3789,-1.3758,-1.3746,-1.3705,-1.3687,-1.3656,-1.3641,-1.362,-1.36,-1.356,-1.3535,-1.3519,-1.3492,-1.3458,-1.3429,-1.3422,-1.3411,-1.3409,-1.34,-1.3422,-1.3424,-1.3426,-1.3433,-1.3406,-1.3406,-1.3379,-1.3379,-1.3379]}]]